"Pseudo-MPEC" for 1977-093E = NORAD 32705 = Blok SO-L

Created 2020 Sep 2 14:08:32 UT using Find_Orb

Click here for an explanation of pseudo-MPECs

This object will re-enter the atmosphere sometime around September 2037. Click here for a plot of this object's inclination and perigee distance over time, running from shortly after its launch in 1977 to re-entry. The pattern of oscillations in perigee eventually leading, decades later, to re-entry is a common one. The spacecraft launched by this booster did the same thing, re-entering in January 2019, as did 1964-054A = OGO-1 in August 2020.

 
 Astrometry: 
1977-093E     C2010 01 16.32056 09 35 12.19 +30 09 57.0         x14.8 V D0336703
1977-093E     C2010 01 16.32222 09 35 32.89 +30 16 47.1         x14.8 V D0336703
1977-093E     C2010 01 16.32389 09 35 53.19 +30 23 29.6         x       D0336703
1977-093E     C2010 01 16.32551 09 36 13.21 +30 30 04.1         x       D0336703
1977-093E     C2010 03 20.24978 12 37 42.96 +51 11 26.6         x16.7 V D0338703
1977-093E     C2010 03 20.25505 12 38 11.14 +51 14 13.3         x16.7 V D0338703
1977-093E     C2010 03 20.26030 12 38 38.94 +51 16 54.5         x16.7 V D0338703
1977-093E     C2011 02 12.45145 11 47 56.72 +53 33 04.4         x16.7 VrD0362703
1977-093E     C2011 02 12.45607 11 48 12.02 +53 32 49.4         x16.7 VrD0362703
1977-093E     C2011 02 12.46071 11 48 27.57 +53 32 29.6         x16.8 VrD0362703
1977-093E     C2011 03 27.20421 12 12 21.99 +53 45 49.5         x17.0 VrD0365703
1977-093E     C2011 03 27.20968 12 12 40.05 +53 47 13.8         x17.0 VrD0365703
1977-093E     C2011 03 27.21516 12 12 57.69 +53 48 33.6         x16.9 VrD0365703
1977-093E     C2011 03 27.22079 12 13 15.38 +53 49 49.0         x16.9 VrD0365703
     UG3F266* C2013 04 13.26517 11 21 18.68 +57 34 53.8         x17.4 Vu     703
     UG3F266  C2013 04 13.27027 11 21 13.60 +57 30 37.2         x17.2 Vu     703
     UG3F266  C2013 04 13.27538 11 21 08.85 +57 26 15.5         x17.2 Vu     703
1977-093E     C2014 12 01.50669 10 50 32.99 +48 27 39.3         x17.0 V D0513703
1977-093E     C2014 12 01.51076 10 50 20.53 +48 20 28.7         x16.6 V D0513703
1977-093E     C2014 12 01.51481 10 50 07.71 +48 13 04.9         x18.0 V D0513703
1977-093E     C2014 12 01.51889 10 49 54.25 +48 05 20.3         x16.8 V D0513703
1977-093E     C2014 12 01.53564 10 48 58.33 +47 32 48.6         x16.5 V D0513703
1977-093E     C2014 12 01.53585 10 48 57.65 +47 32 23.6         x16.4 V D0513703
1977-093E     C2014 12 01.53606 10 48 56.92 +47 31 58.5         x16.6 V D0513703
1977-093E     C2014 12 01.53628 10 48 56.21 +47 31 33.0         x16.6 V D0513703
1977-093E     C2015 02 12.30324 10 18 31.28 +69 50 25.9         x17.7 g D0515I41
1977-093E     C2015 02 12.33760 10 15 55.16 +69 09 41.3         x17.7 g D0515I41
1977-093E    tC2016 08 25.17352 22 02 42.79 +34 00 08.4         x16.1 RqD0550Y00
1977-093E    tC2016 08 25.17512 22 02 36.28 +34 06 41.2         x16.2 RqD0550Y00
1977-093E    tC2016 08 25.17668 22 02 29.70 +34 13 09.1         x16.4 RqD0550Y00
     ZTF01nb  C2018 11 15.36784007 13 29.75 +69 44 26.2          15.17RUNEOCPI41
     ZTF01nb  C2018 11 15.36818707 13 37.79 +69 42 43.9          15.17RUNEOCPI41
     ZTF01nb  C2018 11 15.36886007 13 53.68 +69 39 22.7          15.17RUNEOCPI41
     ZTF01nb  C2018 11 15.36920807 14 01.78 +69 37 37.3          15.17RUNEOCPI41
     C0PP282  C2019 05 29.42607 21 01 57.60 +26 36 47.8          18.4 GV     G96
     C0PP282  C2019 05 29.43133 21 01 52.80 +26 45 41.3                V     G96
     C0PP282  C2019 05 29.43659 21 01 47.74 +26 54 31.3                V     G96
     J77093E  C2020 07 24.94921320 41 09.664+30 41 29.88         16.1 G      Z84
     J77093E  C2020 07 24.94932820 41 09.631+30 41 35.84         16.5 G      Z84
     J77093E  C2020 07 24.94944420 41 09.617+30 41 41.47         16.8 G      Z84
     J77093E  C2020 07 24.94955920 41 09.633+30 41 47.32         16.7 G      Z84
     J77093E  C2020 09 01.92421220 45 11.61 +33 19 48.6          16.8 GV     Z84
     J77093E  C2020 09 01.92434720 45 11.56 +33 19 53.5          17.0 GV     Z84
     J77093E  C2020 09 01.92448220 45 11.53 +33 19 58.1          16.9 GV     Z84
     J77093E  C2020 09 01.92461820 45 11.49 +33 20 02.7          17.0 GV     Z84

Station data:
(703) Catalina Sky Survey  (N32.417006 W110.732640)  US/Arizona.  Observers
   A. R. Gibbs, H. Gröller, R. Hill. Measurers J. D. Ahern, E. C. Beshore,
   A. Boattini, G. J. Garradd, A. R. Gibbs, A. D. Grauer, R. E. Hill, R. A.
   Kowalski, S. M. Larson, R. H. McNaught, B. M. Africano, E. J. Christensen,
   G. A. Farneth, D. C. Fuls, H. Gröller, G. J. Leonard, T. A. Pruyne, R. L.
   Seaman, F. C. Shelly, J. A. Johnson, R. J. Sanders. rs.
(G96) Mt. Lemmon Survey  (N32.442754 W110.788720)  US/Arizona.  Observers H.
   Gröller, D. Rankin. Measurers B. M. Africano, E. J. Christensen, G. A.
   Farneth, D. C. Fuls, A. R. Gibbs, A. D. Grauer, H. Gröller, R. A.
   Kowalski, S. M. Larson, G. J. Leonard, T. A. Pruyne, D. Rankin, R. L.
   Seaman, F. C. Shelly. 1.5-m reflector + 10K CCD.
(I41) Palomar Mountain--ZTF  (N33.357340 W116.859780)  US/California.
   Observer A. U. Tomatic. Measurer Q.-Z. Ye.
(Y00) SONEAR Observatory, Oliveira  (S20.715082 W44.784960)  Brazil.
   Observers C. Jacques, E. Pimentel, J. Barros. Measurer C. Jacques. 0.28-m
   f/2.2 astrograph + CCD.
(Z84) Calar Alto-Schmidt  (N37.223981 W2.548143)  Spain.  Observers R. Jehn,
   M. Micheli. Measurers R. Jehn, M. Micheli, D. Koschny, L. Conversi, E.
   Schwab. 0.8-m f/3 Schmidt + CCD.

Orbital elements:  1977-093E = NORAD 32705 = Blok SO-L
   Perigee 2020 Jun 30.24817 +/- 6.73e-5 TT =  5:57:21 (JD 2459030.74817)
Epoch 2020 Jul  1.0 TT; AMR 0.0047842 +/- 0.00237 m2/kg      Find_Orb
M  69.84318397 +/- 0.006            (J2000 equator)
n  92.89740117 +/- 0.000127         Peri.  223.49109 +/- 0.0034
a104216.015 +/- 0.095               Node   288.93454 +/- 0.0044
e   0.8597780 +/- 2.28e-5           Incl.   59.49497 +/- 0.0016
P5580.24m/3.875d           H 29.9   G  0.15   U  6.7
q 14613.3771 +/- 2.36    Q 193818.653 +/- 2.54
15 of 45 observations 2018 Nov. 15-2020 Sept. 1; mean residual 1".380
Residuals in arcseconds: 
100116 703( 595+  587+)   130413 703(15.5+ 38.9-)   181115 I41 1.16- 2.47+
100116 703( 594+  585+)   130413 703(16.0+ 38.1-)   181115 I41 1.86- 3.47+
100116 703( 588+  577+)   141201 703(.188- 77.4-)   181115 I41 1.41- 3.22+
100116 703( 588+  576+)   141201 703(3.72+ 64.2-)   181115 I41 1.65- 2.05+
100320 703( 187+ 29.5+)   141201 703(5.18+ 60.1-)   190529 G96 .642+ .330-
100320 703( 186+ 28.6+)   141201 703(2.87+ 67.3-)   190529 G96 .469+ 1.42-
100320 703( 187+ 28.4+)   141201 703(1.15+ 73.6-)   190529 G96 .027+ .842-
110212 703( 121+ 9.09+)   141201 703(1.46+ 73.5-)   200724 Z84 .937+ .847+
110212 703( 120+ 9.15+)   141201 703(1.27+ 73.5-)   200724 Z84 .508+ .959+
110212 703( 120+ 8.68+)   141201 703(1.63+ 72.6-)   200724 Z84 .326+ .691+
110327 703( 102+ 7.46-)   150212 I41(7.84+ 36.0-)   200724 Z84 .532+ .697+
110327 703( 102+ 7.69-)   150212 I41(9.33+ 34.8-)   200901 Z84 1.08+ 1.01+
110327 703( 102+ 7.47-)   160825 Y00(.758- 63.7+)   200901 Z84 .853+ 1.15+
110327 703( 102+ 8.41-)   160825 Y00(1.09+ 59.8+)   200901 Z84 .873+ 0.99+
130413 703(15.9+ 39.3-)   160825 Y00(.506- 62.9+)   200901 Z84 .771+ .802+

